Vorticity
4 6 5 8 6 7 6 5 5 4 4 5 2 2 3 5 4 8 7 7 11 9 8 10 5 9 11 4 -2 6 -6 4 9 41 40 26 7 9 5 8 10 40 4
7 8 8 5 7 7 5 6 5 3 5 3 4 3 5 7 10 8 7 7 9 11 7 9 6 6 8 7 8 2 7 6 4 49 38 30 18 11 18 8 -7 19 16
7 6 6 7 8 5 8 5 5 4 4 6 1 5 5 8 9 9 6 6 11 10 6 9 7 5 6 3 0 -0 9 8 -0 46 35 32 22 5 13 4 5 13 41
7 8 5 11 8 7 3 7 3 3 6 2 1 6 3 7 7 9 6 8 9 9 8 8 9 7 7 6 5 5 0 6 -5 41 35 32 24 16 10 4 19 16 34
6 9 11 9 4 4 5 3 6 4 2 4 5 6 3 4 4 10 8 8 10 9 8 7 8 7 8 6 4 3 -1 4 -2 38 35 33 28 19 12 9 4 39 49
6 4 6 3 5 4 6 5 3 3 2 4 4 5 7 8 5 11 6 6 9 9 6 6 10 10 8 8 4 5 2 2 5 28 31 26 32 20 12 8 -7 71 24
10 3 6 5 4 3 3 4 3 3 5 4 3 7 7 6 8 8 8 9 8 7 6 11 12 10 6 8 7 6 2 1 8 11 33 22 31 26 11 14 -11 47 13
10 5 2 6 6 3 0 2 4 5 4 4 4 6 3 6 7 8 9 8 8 8 12 11 8 6 8 7 8 6 4 3 9 10 33 21 30 27 17 15 9 63 4
1 6 7 6 4 1 0 6 5 4 7 6 8 5 7 6 10 9 10 9 9 9 10 7 10 10 7 7 9 8 7 6 5 6 25 20 28 27 11 9 18 55 7
5 2 4 6 4 2 5 4 6 7 6 7 7 8 8 10 8 12 10 9 10 11 8 10 9 6 8 8 8 7 7 7 3 3 27 26 22 33 7 8 23 31 -3
3 9 12 6 -1 3 5 6 8 8 7 9 7 8 6 7 10 10 8 10 10 9 12 9 10 9 8 9 8 8 7 8 4 9 25 26 13 36 8 5 23 31 14
12 11 1 -4 2 5 9 9 7 8 8 7 7 8 8 8 8 9 10 12 9 9 8 9 9 9 9 9 8 7 9 8 7 8 10 23 15 37 10 8 19 38 4
1 -1 4 5 9 9 10 9 7 4 5 7 7 7 6 8 10 11 11 10 10 11 12 11 9 9 8 6 7 5 9 8 7 5 2 28 23 33 15 12 15 45 28
6 5 6 9 8 6 6 5 5 8 8 7 7 7 8 11 12 9 11 14 14 13 10 10 12 12 10 9 8 9 8 8 7 8 9 25 28 24 21 2 8 32 24
6 10 11 10 10 9 9 9 10 9 8 7 9 13 12 10 9 11 11 9 9 9 8 7 7 8 7 7 7 8 7 7 7 9 8 8 23 21 23 1 14 27 34
13 12 11 11 11 9 8 9 9 9 6 10 9 8 11 16 14 11 8 8 4 5 7 9 11 11 13 15 15 14 12 11 11 9 8 4 20 26 25 10 11 15 18
12 10 7 9 11 12 6 7 7 7 5 10 13 16 10 6 7 3 5 7 10 9 13 17 23 25 25 25 23 23 24 23 22 16 13 8 23 23 21 16 0 18 25
8 9 9 8 8 12 10 10 12 12 16 13 8 7 5 2 3 7 12 17 21 26 26 26 25 24 26 26 22 22 23 25 25 19 12 9 20 12 22 17 1 22 17
12 9 10 8 13 12 11 8 13 13 10 9 4 2 4 8 13 20 28 26 23 22 26 27 24 22 22 22 22 23 24 21 23 23 13 8 16 13 21 20 8 12 18
20 15 14 17 11 10 6 16 9 3 1 3 6 11 22 24 23 25 25 27 28 24 19 15 14 14 16 17 19 24 25 25 18 23 14 7 15 16 20 22 12 3 28
9 5 1 6 11 12 9 4 2 3 9 18 22 26 21 21 26 27 27 22 15 17 22 11 22 32 20 16 14 19 27 28 22 21 12 13 17 15 28 19 12 1 19
5 1 1 11 15 2 0 1 14 24 24 21 18 21 28 26 23 20 12 17 7 8 4 18 31 35 29 23 16 15 23 31 25 20 13 16 17 13 25 11 9 8 10
6 6 19 3 -4 7 21 28 31 19 9 14 26 27 19 16 15 13 19 6 22 8 14 13 29 23 21 22 16 16 26 25 30 21 14 17 18 9 22 3 12 8 6
10 -4 6 20 34 35 29 14 7 13 22 29 22 16 15 14 15 12 7 22 4 4 17 18 20 24 22 20 19 21 23 28 32 21 15 16 20 4 20 9 15 6 6
18 32 33 26 22 12 10 16 23 25 21 18 14 16 16 13 10 10 1 10 12 19 19 25 17 20 23 20 21 25 27 29 29 20 14 16 21 1 19 7 25 7 5
25 15 10 13 16 18 19 19 18 18 15 15 19 12 11 10 10 13 18 21 17 20 19 21 27 23 18 18 19 27 26 27 30 20 14 18 20 3 18 10 21 9 4
Height
5763 5762 5760 5758 5756 5754 5751 5748 5745 5742 5740 5737 5733 5729 5725 5722 5719 5716 5713 5710 5706 5701 5698 5695 5692 5689 5688 5685 5681 5678 5672 5667 5659 5651 5650 5653 5658 5665 5671 5677 5682 5689 5703
5755 5753 5751 5749 5747 5744 5742 5739 5736 5734 5730 5727 5723 5720 5717 5713 5709 5704 5701 5697 5695 5692 5687 5683 5679 5676 5674 5671 5670 5666 5659 5650 5642 5632 5629 5634 5640 5650 5656 5663 5669 5674 5687
5746 5744 5742 5741 5738 5735 5733 5730 5727 5724 5721 5717 5714 5711 5707 5702 5699 5695 5691 5685 5681 5678 5674 5670 5666 5663 5659 5656 5655 5652 5647 5637 5626 5617 5615 5617 5622 5630 5639 5649 5655 5658 5672
5737 5735 5733 5732 5729 5726 5723 5721 5718 5714 5711 5707 5703 5700 5696 5690 5686 5682 5679 5676 5670 5664 5661 5658 5654 5649 5646 5642 5639 5635 5631 5625 5615 5605 5602 5603 5606 5613 5623 5633 5640 5644 5659
5728 5726 5724 5722 5719 5716 5712 5709 5706 5703 5699 5695 5692 5688 5683 5678 5673 5668 5663 5662 5658 5652 5646 5642 5639 5635 5632 5628 5625 5622 5617 5612 5604 5594 5590 5590 5592 5598 5610 5616 5626 5631 5645
5719 5716 5714 5711 5708 5705 5701 5697 5693 5689 5685 5681 5678 5674 5669 5664 5658 5653 5648 5644 5642 5639 5633 5627 5624 5621 5618 5614 5611 5608 5604 5600 5593 5586 5580 5580 5582 5586 5594 5604 5612 5618 5631
5710 5707 5704 5701 5697 5692 5688 5684 5679 5674 5671 5667 5663 5659 5653 5647 5643 5638 5632 5628 5625 5622 5618 5612 5607 5605 5602 5599 5596 5593 5590 5587 5583 5576 5571 5570 5572 5574 5582 5590 5598 5608 5617
5700 5697 5693 5688 5684 5680 5675 5671 5665 5660 5656 5651 5646 5641 5636 5631 5627 5622 5617 5612 5608 5604 5602 5598 5592 5588 5585 5583 5582 5578 5576 5575 5572 5566 5561 5560 5561 5564 5570 5579 5584 5595 5604
5688 5684 5680 5676 5671 5666 5662 5657 5650 5645 5640 5635 5630 5624 5619 5615 5610 5605 5601 5596 5591 5589 5584 5580 5576 5573 5570 5568 5566 5564 5563 5561 5559 5556 5551 5550 5551 5554 5559 5567 5571 5583 5592
5676 5671 5666 5662 5658 5653 5647 5641 5635 5630 5625 5618 5611 5606 5601 5597 5591 5587 5582 5578 5573 5569 5567 5563 5560 5556 5554 5552 5551 5549 5548 5547 5546 5544 5540 5539 5540 5543 5549 5555 5560 5570 5580
5663 5658 5652 5647 5643 5637 5630 5624 5619 5612 5605 5599 5593 5587 5580 5575 5570 5566 5561 5557 5553 5551 5548 5545 5542 5539 5536 5535 5533 5533 5533 5532 5532 5531 5529 5527 5528 5532 5537 5544 5549 5556 5568
5646 5642 5637 5632 5626 5619 5612 5607 5600 5593 5587 5580 5573 5566 5559 5554 5549 5544 5540 5536 5533 5529 5528 5525 5524 5521 5520 5518 5517 5516 5517 5517 5517 5517 5517 5515 5516 5520 5525 5532 5539 5545 5555
5631 5625 5619 5612 5605 5598 5592 5585 5578 5572 5565 5558 5551 5543 5536 5531 5526 5521 5517 5513 5511 5510 5507 5507 5505 5503 5502 5500 5499 5499 5499 5499 5501 5501 5502 5502 5503 5508 5512 5518 5526 5534 5546
5613 5606 5600 5593 5585 5578 5572 5566 5559 5553 5546 5537 5528 5521 5515 5510 5505 5500 5496 5493 5491 5489 5488 5487 5485 5483 5482 5479 5478 5478 5480 5481 5483 5485 5486 5487 5489 5493 5499 5505 5512 5520 5528
5596 5589 5582 5575 5567 5561 5555 5548 5540 5531 5524 5517 5508 5500 5494 5490 5485 5480 5477 5473 5469 5466 5464 5462 5460 5458 5457 5455 5452 5454 5457 5460 5463 5466 5468 5470 5473 5478 5485 5493 5500 5508 5518
5578 5572 5565 5557 5549 5541 5535 5528 5519 5509 5502 5495 5488 5482 5476 5471 5466 5460 5455 5450 5444 5440 5436 5432 5429 5428 5426 5424 5422 5425 5429 5434 5439 5445 5449 5452 5455 5461 5468 5478 5487 5494 5506
5557 5550 5544 5536 5527 5518 5511 5505 5498 5490 5484 5478 5471 5463 5457 5452 5444 5438 5431 5423 5416 5411 5406 5401 5395 5393 5393 5390 5389 5393 5397 5403 5410 5419 5425 5432 5436 5443 5451 5461 5471 5481 5491
5536 5528 5522 5514 5504 5496 5490 5485 5479 5473 5467 5459 5451 5443 5436 5429 5420 5411 5401 5393 5386 5380 5374 5368 5363 5362 5362 5360 5360 5362 5368 5375 5382 5392 5399 5409 5416 5424 5433 5445 5456 5465 5476
5513 5507 5500 5493 5487 5478 5472 5467 5460 5452 5444 5436 5429 5420 5409 5400 5391 5383 5373 5364 5356 5351 5345 5341 5338 5336 5337 5335 5335 5336 5341 5350 5357 5366 5375 5385 5396 5405 5415 5428 5440 5451 5462
5491 5486 5481 5475 5468 5460 5452 5445 5438 5429 5419 5412 5403 5393 5382 5372 5363 5355 5347 5340 5334 5329 5324 5321 5317 5315 5315 5314 5313 5313 5317 5326 5334 5342 5353 5363 5376 5386 5397 5411 5424 5436 5447
5476 5469 5464 5459 5449 5440 5430 5423 5414 5404 5396 5387 5378 5368 5358 5348 5341 5334 5327 5322 5317 5312 5307 5302 5297 5292 5292 5294 5293 5294 5297 5305 5312 5321 5333 5345 5356 5369 5382 5395 5408 5421 5430
5459 5452 5446 5441 5433 5422 5411 5404 5394 5383 5373 5364 5355 5347 5338 5329 5323 5317 5312 5307 5301 5296 5291 5284 5277 5272 5271 5273 5275 5276 5279 5285 5293 5304 5316 5328 5339 5353 5366 5380 5394 5406 5417
5444 5436 5428 5423 5416 5403 5392 5383 5372 5363 5355 5347 5338 5330 5322 5315 5308 5303 5298 5293 5286 5281 5276 5270 5263 5259 5256 5257 5259 5261 5264 5269 5278 5289 5301 5312 5323 5338 5352 5366 5380 5392 5405
5428 5420 5412 5403 5394 5383 5373 5363 5355 5346 5338 5330 5323 5315 5308 5302 5296 5290 5285 5279 5273 5267 5262 5257 5252 5247 5245 5244 5245 5247 5250 5256 5265 5276 5288 5299 5311 5325 5340 5355 5368 5381 5395
5410 5401 5390 5382 5374 5366 5358 5347 5338 5329 5323 5316 5309 5302 5296 5290 5284 5278 5272 5266 5260 5254 5249 5245 5241 5238 5235 5233 5233 5235 5239 5245 5254 5266 5278 5290 5302 5315 5328 5345 5359 5371 5382
5393 5385 5376 5366 5358 5350 5342 5332 5324 5316 5310 5303 5296 5289 5283 5277 5271 5265 5260 5252 5247 5242 5238 5235 5232 5229 5227 5225 5225 5228 5231 5238 5248 5259 5271 5282 5294 5307 5319 5333 5347 5362 5373